Location: Laterina
(43.5167°N, 11.7167°E)
Time: 07:15:34
(UTC+00:00)

Cosmos 2026 Rocket - Pass Details

Date: 19 January 2021
Orbit: 940 x 1000 km, 82.9° (Epoch: 08 March)

Event Time Altitude Azimuth Distance (km) Brightness Sun altitude
Rises 03:52:17 0° 8° (N) 3,702 7.1 -30.2°
Reaches altitude 10° 03:56:23 10° 33° (NNE) 2,760 6.7 -29.5°
Maximum altitude 03:59:25 14° 62° (ENE) 2,501 6.8 -28.9°
Drops below altitude 10° 04:02:27 10° 91° (E) 2,765 7.3 -28.4°
Sets 04:06:32 0° 117° (ESE) 3,714 8.0 -27.6°
